Flag for Germany Weather past 2 weeks in Iserlohn, North Rhine-Westphalia, Germany

Now
63 °F

Clear.


Feels Like: 63 °F
Forecast: 50 / 63 °F
Wind: 9 mph from East

Location: Dortmund / Wickede


UV Index: 3 (Moderate)

Visibility: 5 mi


Pressure: 29.92 "Hg

Humidity: 73%

Dew point: 54 °F

Location of IserlohnLocation

Historic Weather in Iserlohn

°F

Iserlohn temperature yesterday

Maximum temperature yesterday: 70 °F (at 12:50 PM)
Minimum temperature yesterday: 46 °F (at 6:20 AM)
Average temperature yesterday: 60 °F

Past Weeks' High & Low Weather Summary

 TemperatureHumidityPressure
High70 °F (Apr 24, 12:50 PM)94% (Apr 21, 8:20 PM)30.45 "Hg (Apr 21, 8:20 PM)
Low30 °F (Apr 16, 5:20 AM)29% (Apr 17, 3:50 PM)29.65 "Hg (Apr 21, 2:50 PM)
Average52 °F66%30.03 "Hg
* Reported Apr 10 10:20 AM — Apr 25 10:20 AM, Iserlohn, Weather by CustomWeather, © 2014

Note: Actual official high and low records may vary slightly from our data, if they occured in-between our weather recording intervals... More about our weather records

Advertising

Historic Weather Conditions — Data for Previous 24 hours

 ConditionsComfort  
Time TempWeatherWind HumidityBarometerVisibility
10:20 AM
Apr 25
61 °FClear.10 mph77%29.92 "Hg4 mi
9:50 AM59 °FClear.9 mph77%29.92 "Hg4 mi
9:20 AM57 °FClear.10 mph77%29.92 "Hg4 mi
8:50 AM54 °FClear.10 mph88%29.92 "Hg3 mi
8:20 AM54 °FClear.8 mph88%29.92 "Hg3 mi
7:50 AM52 °FFog.8 mph88%29.92 "Hg3 mi
7:20 AM52 °FFog.9 mph88%29.92 "Hg3 mi
6:50 AM50 °FFog.7 mph88%29.92 "Hg3 mi
6:20 AM50 °FFog.7 mph88%29.92 "Hg3 mi
5:50 AM50 °FClear.8 mph88%29.92 "Hg4 mi
5:20 AM48 °FClear.7 mph94%29.92 "Hg10 mi
9:50 PM
Apr 24
57 °FClear.6 mph77%30.01 "Hg10 mi
9:20 PM57 °FSunny.6 mph77%30.01 "Hg10 mi
8:50 PM59 °FSunny.3 mph77%30.01 "Hg10 mi
8:20 PM59 °FSunny.2 mph77%30.01 "Hg10 mi
7:50 PM61 °FSunny.2 mph77%30.01 "Hg10 mi
7:20 PM59 °FSunny.5 mph77%30.01 "Hg10 mi
6:50 PM63 °FSunny.2 mph73%30.01 "Hg10 mi
6:20 PM64 °FSunny.6 mph64%30.01 "Hg10 mi
5:50 PM66 °FSunny.1 mph60%30.04 "Hg10 mi
5:20 PM63 °FSunny.3 mph73%30.04 "Hg10 mi
4:50 PM59 °FScattered showers. Clear.5 mph82%30.04 "HgN/A
4:20 PM61 °FThundershowers. Partly sunny.6 mph72%30.07 "HgN/A
3:50 PM59 °FThundershowers. Broken clouds.8 mph72%30.07 "HgN/A
3:20 PM59 °FThunderstorms. Scattered clouds.20 mph68%30.07 "HgN/A
2:50 PM66 °FThundershowers. Partly sunny.5 mph52%30.07 "HgN/A
2:20 PM66 °FSunny.6 mph56%30.07 "Hg10 mi
1:50 PM68 °FSunny.3 mph53%30.07 "Hg10 mi
1:20 PM68 °FSunny.3 mph49%30.07 "Hg10 mi
12:50 PM70 °FSunny.2 mph46%30.09 "Hg10 mi
12:20 PM68 °FSunny.3 mph49%30.09 "Hg10 mi
11:50 AM66 °FSunny.3 mph56%30.09 "Hg10 mi
11:20 AM64 °FSunny.2 mph56%30.12 "Hg10 mi
Weather by CustomWeather, © 2014

See weather overview